Time,TemperatureF,DewpointF,PressureIn,WindDirection,WindDirectionDegrees,WindSpeedMPH,WindSpeedGustMPH,Humidity,HourlyPrecipIn,Conditions,Clouds,dailyrainin,SoftwareType,DateUTC
2013-02-11 00:00:00,26.4,15.9,30.20,South,180,0.0,0.7,64,0.00,,,0.00,WUHU216HW,2013-02-11 05:00:00,
2013-02-11 00:01:00,26.4,15.9,30.20,South,180,0.0,0.7,64,0.00,,,0.00,WUHU216HW,2013-02-11 05:01:00,
2013-02-11 00:06:00,26.4,15.9,30.20,West,270,0.7,0.9,64,0.00,,,0.00,WUHU216HW,2013-02-11 05:06:00,
2013-02-11 00:11:00,26.4,15.9,30.20,North,0,0.2,1.1,64,0.00,,,0.00,WUHU216HW,2013-02-11 05:11:00,
2013-02-11 00:16:00,26.4,15.9,30.20,WSW,248,0.4,1.1,64,0.00,,,0.00,WUHU216HW,2013-02-11 05:16:00,
2013-02-11 00:21:00,26.4,16.3,30.20,NNW,338,0.4,3.4,65,0.00,,,0.00,WUHU216HW,2013-02-11 05:21:00,
2013-02-11 00:26:00,26.4,16.3,30.19,SW,225,0.4,3.4,65,0.00,,,0.00,WUHU216HW,2013-02-11 05:26:00,
2013-02-11 00:31:00,26.3,16.2,30.19,NW,315,0.0,1.6,65,0.00,,,0.00,WUHU216HW,2013-02-11 05:31:00,
2013-02-11 00:36:00,26.3,16.2,30.18,North,0,0.0,1.6,65,0.00,,,0.00,WUHU216HW,2013-02-11 05:36:00,
2013-02-11 00:41:00,26.3,16.2,30.18,SSE,158,0.9,2.2,65,0.00,,,0.00,WUHU216HW,2013-02-11 05:41:00,
2013-02-11 00:46:00,26.1,16.0,30.18,SSW,203,0.7,2.2,65,0.00,,,0.00,WUHU216HW,2013-02-11 05:46:00,
2013-02-11 00:52:00,26.1,16.3,30.18,South,180,0.4,3.4,66,0.00,,,0.00,WUHU216HW,2013-02-11 05:52:00,
2013-02-11 00:57:00,26.1,16.3,30.18,NW,315,0.9,3.4,66,0.00,,,0.00,WUHU216HW,2013-02-11 05:57:00,
2013-02-11 01:02:00,26.1,16.3,30.17,SSE,158,0.4,2.5,66,0.00,,,0.00,WUHU216HW,2013-02-11 06:02:00,
2013-02-11 01:07:00,26.1,16.3,30.17,SSE,158,2.5,2.5,66,0.00,,,0.00,WUHU216HW,2013-02-11 06:07:00,
2013-02-11 01:12:00,26.1,16.3,30.18,WNW,293,0.4,3.4,66,0.00,,,0.00,WUHU216HW,2013-02-11 06:12:00,
2013-02-11 01:17:00,26.1,16.3,30.17,SE,135,1.8,3.4,66,0.00,,,0.00,WUHU216HW,2013-02-11 06:17:00,
2013-02-11 01:22:00,26.1,16.3,30.17,South,180,1.1,2.5,66,0.00,,,0.00,WUHU216HW,2013-02-11 06:22:00,
2013-02-11 01:27:00,26.1,16.3,30.17,South,180,0.4,3.1,66,0.00,,,0.00,WUHU216HW,2013-02-11 06:27:00,
2013-02-11 01:32:00,26.1,16.3,30.17,South,180,1.1,4.7,66,0.00,,,0.00,WUHU216HW,2013-02-11 06:32:00,
2013-02-11 01:37:00,26.1,16.7,30.18,SE,135,3.1,4.7,67,0.00,,,0.00,WUHU216HW,2013-02-11 06:37:00,
2013-02-11 01:42:00,26.1,16.7,30.17,South,180,4.0,4.7,67,0.00,,,0.00,WUHU216HW,2013-02-11 06:42:00,
2013-02-11 01:47:00,26.1,16.7,30.16,SE,135,4.0,4.7,67,0.00,,,0.00,WUHU216HW,2013-02-11 06:47:00,
2013-02-11 01:52:00,26.1,16.7,30.16,South,180,0.0,4.0,67,0.00,,,0.00,WUHU216HW,2013-02-11 06:52:00,
2013-02-11 01:58:00,26.1,16.7,30.15,SW,225,2.0,4.0,67,0.00,,,0.00,WUHU216HW,2013-02-11 06:58:00,
2013-02-11 02:03:00,26.1,16.7,30.14,South,180,5.6,5.6,67,0.00,,,0.00,WUHU216HW,2013-02-11 07:03:00,
2013-02-11 02:08:00,26.1,17.0,30.14,SSE,158,4.0,6.0,68,0.00,,,0.00,WUHU216HW,2013-02-11 07:08:00,
2013-02-11 02:13:00,26.1,17.0,30.15,SSE,158,3.4,6.0,68,0.00,,,0.00,WUHU216HW,2013-02-11 07:13:00,
2013-02-11 02:18:00,26.3,17.2,30.15,North,0,1.3,3.4,68,0.00,,,0.00,WUHU216HW,2013-02-11 07:18:00,
2013-02-11 02:23:00,26.3,17.2,30.14,SSE,158,1.3,3.4,68,0.00,,,0.00,WUHU216HW,2013-02-11 07:23:00,
2013-02-11 02:28:00,26.3,17.2,30.15,SSE,158,1.8,3.1,68,0.00,,,0.00,WUHU216HW,2013-02-11 07:28:00,
2013-02-11 02:33:00,26.4,17.3,30.15,NNW,338,0.4,4.5,68,0.00,,,0.00,WUHU216HW,2013-02-11 07:33:00,
2013-02-11 02:38:00,26.4,17.7,30.14,ESE,113,1.6,4.5,69,0.00,,,0.00,WUHU216HW,2013-02-11 07:38:00,
2013-02-11 02:43:00,26.4,17.7,30.14,SSW,203,0.4,3.4,69,0.00,,,0.00,WUHU216HW,2013-02-11 07:43:00,
2013-02-11 02:48:00,26.6,17.9,30.14,ESE,113,3.8,3.8,69,0.00,,,0.00,WUHU216HW,2013-02-11 07:48:00,
2013-02-11 02:53:00,26.6,17.9,30.13,ESE,113,1.8,4.0,69,0.00,,,0.00,WUHU216HW,2013-02-11 07:53:00,
2013-02-11 02:58:00,26.6,17.9,30.13,SE,135,0.9,4.0,69,0.00,,,0.00,WUHU216HW,2013-02-11 07:58:00,
2013-02-11 03:03:00,26.6,17.9,30.12,SSE,158,2.9,2.9,69,0.00,,,0.00,WUHU216HW,2013-02-11 08:03:00,
2013-02-11 03:08:00,26.6,17.9,30.12,ESE,113,0.9,2.9,69,0.00,,,0.00,WUHU216HW,2013-02-11 08:08:00,
2013-02-11 03:13:00,26.6,17.9,30.11,SSE,158,1.1,2.9,69,0.00,,,0.00,WUHU216HW,2013-02-11 08:13:00,
2013-02-11 03:18:00,26.8,18.4,30.11,South,180,0.4,4.0,70,0.00,,,0.00,WUHU216HW,2013-02-11 08:18:00,
2013-02-11 03:23:00,26.8,18.4,30.12,SE,135,2.5,4.0,70,0.00,,,0.00,WUHU216HW,2013-02-11 08:23:00,
2013-02-11 03:28:00,27.0,18.6,30.11,SE,135,4.0,4.0,70,0.00,,,0.00,WUHU216HW,2013-02-11 08:28:00,
2013-02-11 03:34:00,27.2,19.1,30.10,SE,135,4.5,6.5,71,0.00,,,0.00,WUHU216HW,2013-02-11 08:34:00,
2013-02-11 03:39:00,27.2,19.1,30.10,South,180,2.7,6.5,71,0.00,,,0.00,WUHU216HW,2013-02-11 08:39:00,
2013-02-11 03:44:00,27.3,19.5,30.10,SE,135,3.4,6.9,72,0.00,,,0.00,WUHU216HW,2013-02-11 08:44:00,
2013-02-11 03:49:00,27.3,19.5,30.09,SSE,158,5.4,6.9,72,0.00,,,0.00,WUHU216HW,2013-02-11 08:49:00,
2013-02-11 03:54:00,27.5,20.0,30.09,SE,135,1.1,5.8,73,0.00,,,0.00,WUHU216HW,2013-02-11 08:54:00,
2013-02-11 03:59:00,27.5,20.0,30.09,South,180,1.8,5.4,73,0.00,,,0.00,WUHU216HW,2013-02-11 08:59:00,
2013-02-11 04:04:00,27.5,20.0,30.10,SE,135,1.3,4.7,73,0.00,,,0.00,WUHU216HW,2013-02-11 09:04:00,
2013-02-11 04:09:00,27.5,20.0,30.09,SSE,158,3.4,3.8,73,0.00,,,0.00,WUHU216HW,2013-02-11 09:09:00,
2013-02-11 04:14:00,27.5,20.3,30.08,SSE,158,1.3,3.4,74,0.00,,,0.00,WUHU216HW,2013-02-11 09:14:00,
2013-02-11 04:19:00,27.5,20.3,30.08,SSE,158,1.1,4.7,74,0.00,,,0.00,WUHU216HW,2013-02-11 09:19:00,
2013-02-11 04:24:00,27.7,20.5,30.08,SE,135,3.4,4.7,74,0.00,,,0.00,WUHU216HW,2013-02-11 09:24:00,
2013-02-11 04:29:00,27.9,20.7,30.07,SE,135,2.7,4.0,74,0.00,,,0.00,WUHU216HW,2013-02-11 09:29:00,
2013-02-11 04:34:00,27.9,21.0,30.06,ESE,113,2.0,4.0,75,0.00,,,0.00,WUHU216HW,2013-02-11 09:34:00,
2013-02-11 04:39:00,28.1,21.5,30.06,SE,135,1.8,4.0,76,0.00,,,0.00,WUHU216HW,2013-02-11 09:39:00,
2013-02-11 04:44:00,28.2,21.6,30.05,ESE,113,4.0,5.4,76,0.00,,,0.00,WUHU216HW,2013-02-11 09:44:00,
2013-02-11 04:50:00,28.6,22.0,30.06,SE,135,4.0,5.6,76,0.00,,,0.00,WUHU216HW,2013-02-11 09:50:00,
2013-02-11 04:55:00,28.8,22.5,30.06,South,180,3.4,5.6,77,0.00,,,0.00,WUHU216HW,2013-02-11 09:55:00,
2013-02-11 05:00:00,29.0,22.7,30.07,ESE,113,1.3,4.7,77,0.00,,,0.00,WUHU216HW,2013-02-11 10:00:00,
2013-02-11 05:05:00,29.1,23.1,30.06,SSE,158,2.5,4.3,78,0.00,,,0.00,WUHU216HW,2013-02-11 10:05:00,
2013-02-11 05:10:00,29.3,23.3,30.06,ESE,113,1.1,4.3,78,0.00,,,0.00,WUHU216HW,2013-02-11 10:10:00,
2013-02-11 05:15:00,29.3,23.3,30.06,SE,135,2.0,4.3,78,0.00,,,0.00,WUHU216HW,2013-02-11 10:15:00,
2013-02-11 05:20:00,29.3,23.3,30.05,ESE,113,2.2,4.7,78,0.00,,,0.00,WUHU216HW,2013-02-11 10:20:00,
2013-02-11 05:25:00,29.5,23.5,30.05,SE,135,1.1,4.7,78,0.00,,,0.00,WUHU216HW,2013-02-11 10:25:00,
2013-02-11 05:30:00,29.7,23.7,30.05,ESE,113,1.1,3.8,78,0.00,,,0.00,WUHU216HW,2013-02-11 10:30:00,
2013-02-11 05:35:00,29.7,23.7,30.04,SSE,158,2.2,3.8,78,0.00,,,0.00,WUHU216HW,2013-02-11 10:35:00,
2013-02-11 05:40:00,29.7,23.7,30.04,SE,135,0.9,3.6,78,0.00,,,0.00,WUHU216HW,2013-02-11 10:40:00,
2013-02-11 05:46:00,29.7,23.7,30.04,SE,135,1.1,2.9,78,0.00,,,0.00,WUHU216HW,2013-02-11 10:46:00,
2013-02-11 05:51:00,29.7,24.0,30.04,SE,135,0.7,2.7,79,0.00,,,0.00,WUHU216HW,2013-02-11 10:51:00,
2013-02-11 05:56:00,29.9,24.2,30.04,ESE,113,2.5,3.1,79,0.00,,,0.00,WUHU216HW,2013-02-11 10:56:00,
2013-02-11 06:01:00,30.0,24.3,30.04,ESE,113,1.8,3.6,79,0.00,,,0.00,WUHU216HW,2013-02-11 11:01:00,
2013-02-11 06:06:00,29.9,24.2,30.04,SSE,158,1.8,3.6,79,0.00,,,0.00,WUHU216HW,2013-02-11 11:06:00,
2013-02-11 06:11:00,29.9,24.2,30.02,SE,135,2.7,2.7,79,0.00,,,0.00,WUHU216HW,2013-02-11 11:11:00,
2013-02-11 06:16:00,29.7,24.0,30.02,ESE,113,2.5,4.5,79,0.00,,,0.00,WUHU216HW,2013-02-11 11:16:00,
2013-02-11 06:21:00,29.7,24.0,30.02,SW,225,0.9,4.5,79,0.00,,,0.00,WUHU216HW,2013-02-11 11:21:00,
2013-02-11 06:26:00,29.9,24.2,30.02,East,90,0.4,2.5,79,0.00,,,0.00,WUHU216HW,2013-02-11 11:26:00,
2013-02-11 06:31:00,29.9,24.2,30.02,ESE,113,1.1,1.8,79,0.00,,,0.00,WUHU216HW,2013-02-11 11:31:00,
2013-02-11 06:36:00,29.9,24.2,30.01,ENE,68,1.6,2.7,79,0.00,,,0.00,WUHU216HW,2013-02-11 11:36:00,
2013-02-11 06:41:00,29.9,24.2,30.00,ESE,113,0.4,2.7,79,0.00,,,0.00,WUHU216HW,2013-02-11 11:41:00,
2013-02-11 06:46:00,30.0,24.6,29.99,NNE,23,0.0,2.0,80,0.00,,,0.00,WUHU216HW,2013-02-11 11:46:00,
2013-02-11 06:51:00,30.0,24.6,29.99,SSE,158,0.7,2.0,80,0.00,,,0.00,WUHU216HW,2013-02-11 11:51:00,
2013-02-11 06:56:00,30.0,24.9,29.99,SSE,158,2.5,2.9,81,0.00,,,0.00,WUHU216HW,2013-02-11 11:56:00,
2013-02-11 07:01:00,30.0,24.9,29.99,SSE,158,1.8,2.9,81,0.00,,,0.00,WUHU216HW,2013-02-11 12:01:00,
2013-02-11 07:06:00,30.2,25.1,29.99,SSE,158,1.8,2.5,81,0.00,,,0.00,WUHU216HW,2013-02-11 12:06:00,
2013-02-11 07:11:00,30.4,25.3,29.99,South,180,3.6,3.6,81,0.00,,,0.00,WUHU216HW,2013-02-11 12:11:00,
2013-02-11 07:16:00,30.6,25.5,29.99,ESE,113,0.7,3.6,81,0.00,,,0.00,WUHU216HW,2013-02-11 12:16:00,
2013-02-11 07:21:00,30.8,25.7,29.98,East,90,0.9,3.6,81,0.00,,,0.00,WUHU216HW,2013-02-11 12:21:00,
2013-02-11 07:26:00,30.8,25.7,29.98,SE,135,0.0,1.8,81,0.00,,,0.00,WUHU216HW,2013-02-11 12:26:00,
2013-02-11 07:32:00,30.8,25.7,29.97,ENE,68,0.4,1.8,81,0.00,,,0.00,WUHU216HW,2013-02-11 12:32:00,
2013-02-11 07:36:00,30.8,25.7,29.97,ENE,68,0.2,1.3,81,0.00,,,0.00,WUHU216HW,2013-02-11 12:36:00,
2013-02-11 07:42:00,30.8,25.7,29.97,NNW,338,0.0,1.3,81,0.00,,,0.00,WUHU216HW,2013-02-11 12:42:00,
2013-02-11 07:47:00,30.8,25.9,29.96,NE,45,0.0,0.4,82,0.00,,,0.00,WUHU216HW,2013-02-11 12:47:00,
2013-02-11 07:52:00,30.8,25.9,29.96,SE,135,0.4,1.1,82,0.00,,,0.00,WUHU216HW,2013-02-11 12:52:00,
2013-02-11 07:57:00,30.8,25.9,29.96,ENE,68,0.0,2.2,82,0.00,,,0.00,WUHU216HW,2013-02-11 12:57:00,
2013-02-11 08:02:00,30.8,25.9,29.96,ESE,113,0.0,2.2,82,0.00,,,0.00,WUHU216HW,2013-02-11 13:02:00,
2013-02-11 08:07:00,30.8,25.9,29.96,ESE,113,0.0,0.4,82,0.00,,,0.00,WUHU216HW,2013-02-11 13:07:00,
2013-02-11 08:12:00,30.8,25.9,29.96,ESE,113,0.0,0.0,82,0.00,,,0.00,WUHU216HW,2013-02-11 13:12:00,
2013-02-11 08:17:00,30.8,25.9,29.96,ESE,113,0.0,0.0,82,0.00,,,0.00,WUHU216HW,2013-02-11 13:17:00,
2013-02-11 08:22:00,30.9,26.0,29.96,ESE,113,0.0,0.0,82,0.00,,,0.00,WUHU216HW,2013-02-11 13:22:00,
2013-02-11 08:27:00,30.9,26.3,29.95,East,90,0.0,0.0,83,0.00,,,0.00,WUHU216HW,2013-02-11 13:27:00,
2013-02-11 08:32:00,31.1,26.5,29.95,East,90,0.0,0.0,83,0.00,,,0.00,WUHU216HW,2013-02-11 13:32:00,
2013-02-11 08:37:00,31.1,26.5,29.94,East,90,0.0,0.0,83,0.00,,,0.00,WUHU216HW,2013-02-11 13:37:00,
2013-02-11 08:42:00,31.1,26.5,29.94,NW,315,0.0,0.0,83,0.00,,,0.00,WUHU216HW,2013-02-11 13:42:00,
2013-02-11 08:47:00,31.1,26.5,29.94,NW,315,0.0,0.2,83,0.00,,,0.00,WUHU216HW,2013-02-11 13:47:00,
2013-02-11 08:53:00,31.3,26.7,29.93,NW,315,0.0,0.2,83,0.00,,,0.00,WUHU216HW,2013-02-11 13:53:00,
2013-02-11 08:58:00,31.3,26.7,29.93,NW,315,0.0,0.0,83,0.00,,,0.00,WUHU216HW,2013-02-11 13:58:00,
2013-02-11 09:03:00,31.3,26.7,29.93,NW,315,0.0,0.0,83,0.00,,,0.00,WUHU216HW,2013-02-11 14:03:00,
2013-02-11 09:08:00,31.5,26.9,29.93,NW,315,0.0,0.0,83,0.00,,,0.00,WUHU216HW,2013-02-11 14:08:00,
2013-02-11 09:13:00,31.5,26.9,29.92,NW,315,0.0,0.0,83,0.00,,,0.00,WUHU216HW,2013-02-11 14:13:00,
2013-02-11 09:18:00,31.5,26.9,29.92,NW,315,0.0,0.0,83,0.00,,,0.00,WUHU216HW,2013-02-11 14:18:00,
2013-02-11 09:23:00,31.5,26.9,29.92,NW,315,0.0,0.0,83,0.00,,,0.00,WUHU216HW,2013-02-11 14:23:00,
2013-02-11 09:28:00,31.5,26.9,29.91,North,0,0.0,0.7,83,0.00,,,0.00,WUHU216HW,2013-02-11 14:28:00,
2013-02-11 09:33:00,31.5,26.9,29.91,East,90,0.0,1.1,83,0.00,,,0.00,WUHU216HW,2013-02-11 14:33:00,
2013-02-11 09:38:00,31.7,27.1,29.90,East,90,0.2,1.1,83,0.00,,,0.00,WUHU216HW,2013-02-11 14:38:00,
2013-02-11 09:43:00,31.7,27.1,29.90,East,90,0.4,1.8,83,0.00,,,0.00,WUHU216HW,2013-02-11 14:43:00,
2013-02-11 09:48:00,31.8,27.2,29.90,East,90,0.0,1.8,83,0.00,,,0.00,WUHU216HW,2013-02-11 14:48:00,
2013-02-11 09:53:00,31.8,27.5,29.90,East,90,0.0,0.7,84,0.00,,,0.00,WUHU216HW,2013-02-11 14:53:00,
2013-02-11 09:58:00,32.0,28.0,29.89,NNW,338,0.7,0.7,85,0.00,,,0.00,WUHU216HW,2013-02-11 14:58:00,
2013-02-11 10:03:00,32.0,28.0,29.89,NNW,338,0.0,0.7,85,0.00,,,0.00,WUHU216HW,2013-02-11 15:03:00,
2013-02-11 10:08:00,32.0,27.7,29.88,ENE,68,0.0,0.7,84,0.00,,,0.00,WUHU216HW,2013-02-11 15:08:00,
2013-02-11 10:13:00,32.2,27.9,29.88,ENE,68,0.0,0.4,84,0.00,,,0.00,WUHU216HW,2013-02-11 15:13:00,
2013-02-11 10:19:00,32.2,27.9,29.87,ESE,113,0.2,0.7,84,0.00,,,0.00,WUHU216HW,2013-02-11 15:19:00,
2013-02-11 10:24:00,32.4,28.1,29.87,SE,135,0.0,0.7,84,0.00,,,0.00,WUHU216HW,2013-02-11 15:24:00,
2013-02-11 10:29:00,32.7,28.4,29.87,WSW,248,0.0,1.1,84,0.00,,,0.00,WUHU216HW,2013-02-11 15:29:00,
2013-02-11 10:34:00,32.9,28.9,29.88,SE,135,0.4,1.1,85,0.00,,,0.00,WUHU216HW,2013-02-11 15:34:00,
2013-02-11 10:39:00,33.3,29.3,29.88,SE,135,0.7,1.6,85,0.00,,,0.00,WUHU216HW,2013-02-11 15:39:00,
2013-02-11 10:44:00,33.6,29.5,29.88,SW,225,0.4,1.6,85,0.00,,,0.00,WUHU216HW,2013-02-11 15:44:00,
2013-02-11 10:49:00,33.6,29.5,29.88,SSE,158,0.4,1.3,85,0.00,,,0.00,WUHU216HW,2013-02-11 15:49:00,
2013-02-11 10:54:00,33.8,30.0,29.87,SSW,203,0.4,4.0,86,0.00,,,0.00,WUHU216HW,2013-02-11 15:54:00,
2013-02-11 10:59:00,34.0,30.2,29.87,SE,135,1.8,4.0,86,0.00,,,0.00,WUHU216HW,2013-02-11 15:59:00,
2013-02-11 11:04:00,34.2,30.4,29.86,SSE,158,1.1,2.5,86,0.00,,,0.00,WUHU216HW,2013-02-11 16:04:00,
2013-02-11 11:09:00,34.4,30.6,29.86,SSE,158,0.4,2.9,86,0.00,,,0.00,WUHU216HW,2013-02-11 16:09:00,
2013-02-11 11:14:00,34.5,30.7,29.85,SSW,203,0.4,3.8,86,0.00,,,0.00,WUHU216HW,2013-02-11 16:14:00,
2013-02-11 11:19:00,34.7,31.2,29.84,South,180,0.7,3.8,87,0.00,,,0.00,WUHU216HW,2013-02-11 16:19:00,
2013-02-11 11:24:00,34.9,31.4,29.83,SE,135,1.1,4.0,87,0.00,,,0.00,WUHU216HW,2013-02-11 16:24:00,
2013-02-11 11:30:00,35.1,31.6,29.84,South,180,1.8,4.0,87,0.00,,,0.00,WUHU216HW,2013-02-11 16:30:00,
2013-02-11 11:35:00,35.4,31.9,29.84,SSW,203,0.9,3.4,87,0.00,,,0.00,WUHU216HW,2013-02-11 16:35:00,
2013-02-11 11:40:00,35.6,32.1,29.84,SW,225,3.1,4.7,87,0.00,,,0.00,WUHU216HW,2013-02-11 16:40:00,
2013-02-11 11:45:00,35.8,32.3,29.83,SSE,158,1.1,4.7,87,0.00,,,0.00,WUHU216HW,2013-02-11 16:45:00,
2013-02-11 11:50:00,36.0,32.5,29.83,SSE,158,1.1,4.5,87,0.00,,,0.00,WUHU216HW,2013-02-11 16:50:00,
2013-02-11 11:55:00,36.2,32.7,29.82,South,180,2.7,3.4,87,0.00,,,0.00,WUHU216HW,2013-02-11 16:55:00,
2013-02-11 12:00:00,36.3,32.8,29.81,WSW,248,4.0,4.7,87,0.00,,,0.00,WUHU216HW,2013-02-11 17:00:00,
2013-02-11 12:05:00,36.5,33.0,29.80,SW,225,0.9,4.7,87,0.00,,,0.00,WUHU216HW,2013-02-11 17:05:00,
2013-02-11 12:10:00,36.7,33.2,29.80,SW,225,4.9,4.9,87,0.00,,,0.00,WUHU216HW,2013-02-11 17:10:00,
2013-02-11 12:15:00,37.2,33.9,29.79,ESE,113,3.1,5.4,88,0.00,,,0.00,WUHU216HW,2013-02-11 17:15:00,
2013-02-11 12:20:00,37.2,33.7,29.79,SW,225,1.8,5.4,87,0.00,,,0.00,WUHU216HW,2013-02-11 17:20:00,
2013-02-11 12:25:00,37.6,34.0,29.79,SSE,158,2.5,4.5,87,0.00,,,0.00,WUHU216HW,2013-02-11 17:25:00,
2013-02-11 12:30:00,37.8,34.5,29.78,SSE,158,2.5,3.6,88,0.00,,,0.00,WUHU216HW,2013-02-11 17:30:00,
2013-02-11 12:35:00,38.0,34.4,29.78,SSW,203,5.8,7.2,87,0.00,,,0.00,WUHU216HW,2013-02-11 17:35:00,
2013-02-11 12:40:00,38.1,34.5,29.76,WNW,293,6.3,7.2,87,0.00,,,0.00,WUHU216HW,2013-02-11 17:40:00,
2013-02-11 12:45:00,38.3,34.7,29.77,SW,225,2.9,6.3,87,0.00,,,0.00,WUHU216HW,2013-02-11 17:45:00,
2013-02-11 12:50:00,38.5,34.9,29.76,West,270,2.5,6.3,87,0.00,,,0.00,WUHU216HW,2013-02-11 17:50:00,
2013-02-11 12:56:00,38.5,34.9,29.76,SSE,158,1.1,4.0,87,0.00,,,0.00,WUHU216HW,2013-02-11 17:56:00,
2013-02-11 13:01:00,38.5,34.9,29.76,SSW,203,0.9,4.0,87,0.00,,,0.00,WUHU216HW,2013-02-11 18:01:00,
2013-02-11 13:06:00,38.3,34.7,29.74,WSW,248,0.9,3.6,87,0.00,,,0.00,WUHU216HW,2013-02-11 18:06:00,
2013-02-11 13:11:00,38.3,34.7,29.75,South,180,3.8,4.5,87,0.00,,,0.00,WUHU216HW,2013-02-11 18:11:00,
2013-02-11 13:16:00,38.3,34.7,29.75,WSW,248,1.1,4.5,87,0.00,,,0.00,WUHU216HW,2013-02-11 18:16:00,
2013-02-11 13:21:00,38.3,34.7,29.75,SSW,203,2.5,3.8,87,0.00,,,0.00,WUHU216HW,2013-02-11 18:21:00,
2013-02-11 13:26:00,38.3,34.7,29.74,SW,225,1.8,2.5,87,0.00,,,0.00,WUHU216HW,2013-02-11 18:26:00,
2013-02-11 13:31:00,38.3,34.7,29.73,WSW,248,1.6,4.7,87,0.00,,,0.00,WUHU216HW,2013-02-11 18:31:00,
2013-02-11 13:36:00,38.1,34.5,29.73,SE,135,0.0,4.7,87,0.00,,,0.00,WUHU216HW,2013-02-11 18:36:00,
2013-02-11 13:41:00,38.3,34.7,29.73,West,270,3.4,3.8,87,0.00,,,0.00,WUHU216HW,2013-02-11 18:41:00,
2013-02-11 13:46:00,38.3,34.7,29.74,South,180,2.7,3.8,87,0.00,,,0.00,WUHU216HW,2013-02-11 18:46:00,
2013-02-11 13:51:00,38.1,34.5,29.74,West,270,3.6,4.9,87,0.00,,,0.00,WUHU216HW,2013-02-11 18:51:00,
2013-02-11 13:56:00,38.1,34.5,29.73,South,180,4.5,4.9,87,0.00,,,0.00,WUHU216HW,2013-02-11 18:56:00,
2013-02-11 14:01:00,38.0,34.4,29.73,West,270,1.8,4.7,87,0.00,,,0.00,WUHU216HW,2013-02-11 19:01:00,
2013-02-11 14:06:00,38.0,34.4,29.73,SSW,203,0.4,5.1,87,0.00,,,0.00,WUHU216HW,2013-02-11 19:06:00,
2013-02-11 14:11:00,38.0,34.7,29.72,WSW,248,1.6,5.1,88,0.00,,,0.00,WUHU216HW,2013-02-11 19:11:00,
2013-02-11 14:16:00,38.0,34.7,29.71,South,180,2.2,5.4,88,0.00,,,0.00,WUHU216HW,2013-02-11 19:16:00,
2013-02-11 14:22:00,38.0,34.4,29.71,SW,225,1.8,5.4,87,0.00,,,0.00,WUHU216HW,2013-02-11 19:22:00,
2013-02-11 14:27:00,38.0,34.7,29.71,WNW,293,0.7,4.0,88,0.00,,,0.00,WUHU216HW,2013-02-11 19:27:00,
2013-02-11 14:32:00,38.0,34.7,29.71,SSE,158,1.8,3.4,88,0.00,,,0.00,WUHU216HW,2013-02-11 19:32:00,
2013-02-11 14:37:00,38.0,34.7,29.71,WSW,248,0.4,3.4,88,0.00,,,0.00,WUHU216HW,2013-02-11 19:37:00,
2013-02-11 14:42:00,38.0,34.7,29.71,West,270,1.1,5.4,88,0.00,,,0.00,WUHU216HW,2013-02-11 19:42:00,
2013-02-11 14:47:00,38.0,34.7,29.70,SW,225,1.8,5.4,88,0.00,,,0.00,WUHU216HW,2013-02-11 19:47:00,
2013-02-11 14:52:00,38.0,34.7,29.70,SSW,203,4.0,4.0,88,0.00,,,0.00,WUHU216HW,2013-02-11 19:52:00,
2013-02-11 14:57:00,38.0,34.7,29.69,SW,225,0.4,4.0,88,0.00,,,0.00,WUHU216HW,2013-02-11 19:57:00,
2013-02-11 15:02:00,38.0,34.7,29.69,SSE,158,0.4,2.5,88,0.00,,,0.00,WUHU216HW,2013-02-11 20:02:00,
2013-02-11 15:08:00,38.0,34.7,29.68,SSW,203,1.3,2.9,88,0.00,,,0.00,WUHU216HW,2013-02-11 20:08:00,
2013-02-11 15:13:00,38.0,34.7,29.68,South,180,1.1,2.2,88,0.00,,,0.00,WUHU216HW,2013-02-11 20:13:00,
2013-02-11 15:18:00,38.0,34.7,29.68,SW,225,1.6,3.8,88,0.00,,,0.00,WUHU216HW,2013-02-11 20:18:00,
2013-02-11 15:23:00,38.0,34.7,29.68,SSW,203,1.8,3.8,88,0.00,,,0.00,WUHU216HW,2013-02-11 20:23:00,
2013-02-11 15:28:00,38.0,34.7,29.68,SW,225,0.2,2.5,88,0.00,,,0.00,WUHU216HW,2013-02-11 20:28:00,
2013-02-11 15:33:00,38.0,34.7,29.68,ESE,113,1.1,3.6,88,0.00,,,0.00,WUHU216HW,2013-02-11 20:33:00,
2013-02-11 15:38:00,38.1,34.8,29.68,SW,225,0.7,3.6,88,0.00,,,0.00,WUHU216HW,2013-02-11 20:38:00,
2013-02-11 15:43:00,38.1,34.8,29.67,SW,225,4.0,4.0,88,0.00,,,0.00,WUHU216HW,2013-02-11 20:43:00,
2013-02-11 15:48:00,38.1,34.8,29.67,SE,135,0.4,4.0,88,0.00,,,0.00,WUHU216HW,2013-02-11 20:48:00,
2013-02-11 15:53:00,38.1,34.8,29.66,South,180,2.5,4.3,88,0.00,,,0.00,WUHU216HW,2013-02-11 20:53:00,
2013-02-11 15:58:00,38.1,34.8,29.66,WNW,293,0.7,4.3,88,0.01,,,0.00,WUHU216HW,2013-02-11 20:58:00,
2013-02-11 16:03:00,38.1,34.8,29.65,SE,135,3.1,3.8,88,0.01,,,0.00,WUHU216HW,2013-02-11 21:03:00,
2013-02-11 16:08:00,38.1,34.8,29.65,SSE,158,0.4,3.8,88,0.01,,,0.00,WUHU216HW,2013-02-11 21:08:00,
2013-02-11 16:13:00,38.3,35.0,29.65,SW,225,1.1,3.1,88,0.01,,,0.00,WUHU216HW,2013-02-11 21:13:00,
2013-02-11 16:18:00,38.3,35.0,29.66,SSE,158,1.1,2.5,88,0.01,,,0.00,WUHU216HW,2013-02-11 21:18:00,
2013-02-11 16:23:00,38.3,35.3,29.65,West,270,3.1,3.8,89,0.01,,,0.00,WUHU216HW,2013-02-11 21:23:00,
2013-02-11 16:28:00,38.3,35.3,29.66,WSW,248,1.8,3.8,89,0.01,,,0.00,WUHU216HW,2013-02-11 21:28:00,
2013-02-11 16:33:00,38.3,35.3,29.65,SSW,203,2.5,4.0,89,0.01,,,0.00,WUHU216HW,2013-02-11 21:33:00,
2013-02-11 16:38:00,38.3,35.3,29.65,SW,225,3.4,4.0,89,0.01,,,0.00,WUHU216HW,2013-02-11 21:38:00,
2013-02-11 16:43:00,38.3,35.3,29.65,SW,225,1.8,3.4,89,0.02,,,0.02,WUHU216HW,2013-02-11 21:43:00,
2013-02-11 16:48:00,38.5,35.5,29.65,WSW,248,0.9,3.4,89,0.02,,,0.02,WUHU216HW,2013-02-11 21:48:00,
2013-02-11 16:53:00,38.7,35.7,29.64,SW,225,0.9,2.2,89,0.01,,,0.02,WUHU216HW,2013-02-11 21:53:00,
2013-02-11 16:58:00,38.5,35.5,29.64,SW,225,0.4,4.0,89,0.01,,,0.02,WUHU216HW,2013-02-11 21:58:00,
2013-02-11 17:04:00,38.5,35.5,29.64,West,270,4.0,4.0,89,0.01,,,0.02,WUHU216HW,2013-02-11 22:04:00,
2013-02-11 17:09:00,38.7,35.7,29.63,West,270,3.4,4.0,89,0.02,,,0.02,WUHU216HW,2013-02-11 22:09:00,
2013-02-11 17:14:00,38.7,35.7,29.63,WNW,293,2.5,3.4,89,0.02,,,0.02,WUHU216HW,2013-02-11 22:14:00,
2013-02-11 17:19:00,38.7,35.7,29.63,SW,225,0.7,3.4,89,0.02,,,0.02,WUHU216HW,2013-02-11 22:19:00,
2013-02-11 17:24:00,38.7,35.7,29.63,WSW,248,2.2,4.9,89,0.02,,,0.02,WUHU216HW,2013-02-11 22:24:00,
2013-02-11 17:29:00,38.7,35.7,29.63,SW,225,2.7,4.9,89,0.02,,,0.02,WUHU216HW,2013-02-11 22:29:00,
2013-02-11 17:34:00,38.7,35.7,29.63,South,180,2.7,5.1,89,0.02,,,0.02,WUHU216HW,2013-02-11 22:34:00,
2013-02-11 17:39:00,38.7,35.7,29.63,WSW,248,1.3,5.1,89,0.02,,,0.02,WUHU216HW,2013-02-11 22:39:00,
2013-02-11 17:44:00,38.7,35.7,29.63,WSW,248,2.0,3.1,89,0.01,,,0.02,WUHU216HW,2013-02-11 22:44:00,
2013-02-11 17:49:00,38.5,35.5,29.62,SSW,203,3.4,3.4,89,0.01,,,0.02,WUHU216HW,2013-02-11 22:49:00,
2013-02-11 17:54:00,38.5,35.5,29.62,WSW,248,2.5,3.4,89,0.01,,,0.02,WUHU216HW,2013-02-11 22:54:00,
2013-02-11 17:59:00,38.5,35.5,29.62,SSW,203,1.6,3.8,89,0.01,,,0.02,WUHU216HW,2013-02-11 22:59:00,
2013-02-11 18:04:00,38.3,35.6,29.62,West,270,0.2,3.8,90,0.00,,,0.02,WUHU216HW,2013-02-11 23:04:00,
2013-02-11 18:09:00,38.3,35.6,29.62,West,270,0.9,2.5,90,0.00,,,0.02,WUHU216HW,2013-02-11 23:09:00,
2013-02-11 18:14:00,38.3,35.6,29.62,WNW,293,1.6,2.5,90,0.00,,,0.02,WUHU216HW,2013-02-11 23:14:00,
2013-02-11 18:19:00,38.1,35.4,29.62,West,270,1.3,2.9,90,0.00,,,0.02,WUHU216HW,2013-02-11 23:19:00,
2013-02-11 18:24:00,38.1,35.4,29.62,WSW,248,0.9,3.1,90,0.00,,,0.02,WUHU216HW,2013-02-11 23:24:00,
2013-02-11 18:29:00,38.1,35.4,29.61,SSW,203,0.4,3.1,90,0.00,,,0.02,WUHU216HW,2013-02-11 23:29:00,
2013-02-11 18:34:00,38.0,35.3,29.61,South,180,0.4,3.1,90,0.00,,,0.02,WUHU216HW,2013-02-11 23:34:00,
2013-02-11 18:39:00,38.0,35.3,29.61,SSW,203,0.7,2.7,90,0.00,,,0.02,WUHU216HW,2013-02-11 23:39:00,
2013-02-11 18:45:00,38.0,35.3,29.61,WNW,293,1.8,2.7,90,0.00,,,0.02,WUHU216HW,2013-02-11 23:45:00,
2013-02-11 18:50:00,38.0,35.3,29.61,WNW,293,2.5,3.4,90,0.00,,,0.02,WUHU216HW,2013-02-11 23:50:00,
2013-02-11 18:55:00,38.0,35.3,29.61,West,270,0.2,3.4,90,0.00,,,0.02,WUHU216HW,2013-02-11 23:55:00,
2013-02-11 19:00:00,38.0,35.3,29.61,West,270,1.6,2.5,90,0.00,,,0.02,WUHU216HW,2013-02-12 00:00:00,
2013-02-11 19:05:00,38.0,35.3,29.61,SSW,203,0.0,2.0,90,0.01,,,0.04,WUHU216HW,2013-02-12 00:05:00,
2013-02-11 19:10:00,38.0,35.3,29.60,WSW,248,0.4,2.0,90,0.01,,,0.04,WUHU216HW,2013-02-12 00:10:00,
2013-02-11 19:15:00,37.8,35.1,29.60,WSW,248,0.2,0.4,90,0.01,,,0.04,WUHU216HW,2013-02-12 00:15:00,
2013-02-11 19:20:00,37.8,35.1,29.60,WNW,293,0.0,0.4,90,0.01,,,0.04,WUHU216HW,2013-02-12 00:20:00,
2013-02-11 19:25:00,37.8,35.1,29.61,West,270,1.3,1.8,90,0.01,,,0.04,WUHU216HW,2013-02-12 00:25:00,
2013-02-11 19:30:00,37.8,35.1,29.61,SSW,203,0.4,2.2,90,0.01,,,0.04,WUHU216HW,2013-02-12 00:30:00,
2013-02-11 19:35:00,37.6,34.9,29.60,WSW,248,0.9,4.0,90,0.01,,,0.04,WUHU216HW,2013-02-12 00:35:00,
2013-02-11 19:40:00,37.6,34.9,29.60,SW,225,0.9,4.0,90,0.01,,,0.04,WUHU216HW,2013-02-12 00:40:00,
2013-02-11 19:45:00,37.6,34.9,29.60,SW,225,1.6,2.5,90,0.01,,,0.04,WUHU216HW,2013-02-12 00:45:00,
2013-02-11 19:50:00,37.6,34.9,29.60,SW,225,2.0,2.0,90,0.01,,,0.04,WUHU216HW,2013-02-12 00:50:00,
2013-02-11 19:55:00,37.6,34.9,29.61,WSW,248,2.2,2.2,90,0.01,,,0.04,WUHU216HW,2013-02-12 00:55:00,
2013-02-11 20:00:00,37.6,34.9,29.60,SW,225,1.6,3.6,90,0.00,,,0.04,WUHU216HW,2013-02-12 01:00:00,
2013-02-11 20:05:00,37.6,34.9,29.61,West,270,1.6,3.6,90,0.00,,,0.04,WUHU216HW,2013-02-12 01:05:00,
2013-02-11 20:10:00,37.6,34.9,29.61,SSW,203,2.5,3.4,90,0.00,,,0.04,WUHU216HW,2013-02-12 01:10:00,
2013-02-11 20:15:00,37.8,35.1,29.61,SSW,203,4.0,4.0,90,0.00,,,0.04,WUHU216HW,2013-02-12 01:15:00,
2013-02-11 20:20:00,38.0,35.3,29.61,SSE,158,3.4,4.0,90,0.00,,,0.04,WUHU216HW,2013-02-12 01:20:00,
2013-02-11 20:25:00,38.0,35.3,29.61,SW,225,3.4,4.3,90,0.00,,,0.04,WUHU216HW,2013-02-12 01:25:00,
2013-02-11 20:30:00,38.1,35.4,29.61,SSW,203,2.5,4.3,90,0.00,,,0.04,WUHU216HW,2013-02-12 01:30:00,
2013-02-11 20:35:00,38.1,35.4,29.61,SW,225,2.5,3.6,90,0.00,,,0.04,WUHU216HW,2013-02-12 01:35:00,
2013-02-11 20:40:00,38.1,35.4,29.61,SSW,203,2.5,3.6,90,0.00,,,0.04,WUHU216HW,2013-02-12 01:40:00,
2013-02-11 20:46:00,38.1,35.4,29.61,West,270,1.8,2.5,90,0.00,,,0.04,WUHU216HW,2013-02-12 01:46:00,
2013-02-11 20:51:00,38.1,35.4,29.61,SW,225,1.8,4.3,90,0.00,,,0.04,WUHU216HW,2013-02-12 01:51:00,
2013-02-11 20:56:00,38.1,35.4,29.61,West,270,2.0,4.3,90,0.00,,,0.04,WUHU216HW,2013-02-12 01:56:00,
2013-02-11 21:01:00,38.3,35.6,29.63,WNW,293,3.6,3.6,90,0.00,,,0.04,WUHU216HW,2013-02-12 02:01:00,
2013-02-11 21:06:00,38.1,35.4,29.63,WNW,293,2.5,4.9,90,0.00,,,0.04,WUHU216HW,2013-02-12 02:06:00,
2013-02-11 21:11:00,38.0,35.3,29.63,WNW,293,1.8,4.9,90,0.00,,,0.04,WUHU216HW,2013-02-12 02:11:00,
2013-02-11 21:16:00,37.6,34.9,29.63,WSW,248,4.0,6.5,90,0.01,,,0.04,WUHU216HW,2013-02-12 02:16:00,
2013-02-11 21:21:00,37.4,34.7,29.63,West,270,6.0,7.8,90,0.01,,,0.04,WUHU216HW,2013-02-12 02:21:00,
2013-02-11 21:26:00,37.2,34.5,29.63,SW,225,4.3,7.8,90,0.01,,,0.04,WUHU216HW,2013-02-12 02:26:00,
2013-02-11 21:31:00,37.1,34.7,29.63,WSW,248,3.1,5.4,91,0.01,,,0.04,WUHU216HW,2013-02-12 02:31:00,
2013-02-11 21:36:00,37.1,34.7,29.63,West,270,2.0,5.6,91,0.01,,,0.04,WUHU216HW,2013-02-12 02:36:00,
2013-02-11 21:41:00,37.1,34.7,29.63,West,270,4.7,5.6,91,0.01,,,0.04,WUHU216HW,2013-02-12 02:41:00,
2013-02-11 21:46:00,37.1,34.7,29.64,WNW,293,4.0,5.6,91,0.01,,,0.04,WUHU216HW,2013-02-12 02:46:00,
2013-02-11 21:51:00,37.2,34.8,29.64,WSW,248,2.7,6.0,91,0.01,,,0.04,WUHU216HW,2013-02-12 02:51:00,
2013-02-11 21:57:00,37.2,34.8,29.64,WNW,293,2.5,6.0,91,0.01,,,0.04,WUHU216HW,2013-02-12 02:57:00,
2013-02-11 22:02:00,37.2,34.8,29.65,West,270,1.8,5.4,91,0.01,,,0.04,WUHU216HW,2013-02-12 03:02:00,
2013-02-11 22:07:00,37.4,35.0,29.65,WNW,293,3.8,5.4,91,0.01,,,0.04,WUHU216HW,2013-02-12 03:07:00,
2013-02-11 22:12:00,37.2,34.8,29.66,WSW,248,2.0,5.4,91,0.00,,,0.04,WUHU216HW,2013-02-12 03:12:00,
2013-02-11 22:17:00,37.2,34.8,29.66,WSW,248,3.8,4.7,91,0.00,,,0.04,WUHU216HW,2013-02-12 03:17:00,
2013-02-11 22:22:00,37.2,34.8,29.66,SSW,203,1.1,6.9,91,0.00,,,0.04,WUHU216HW,2013-02-12 03:22:00,
2013-02-11 22:27:00,37.2,34.8,29.65,West,270,1.8,6.9,91,0.00,,,0.04,WUHU216HW,2013-02-12 03:27:00,
2013-02-11 22:32:00,37.2,34.8,29.65,North,0,2.5,5.4,91,0.00,,,0.04,WUHU216HW,2013-02-12 03:32:00,
2013-02-11 22:38:00,37.2,34.8,29.66,WSW,248,1.8,2.5,91,0.00,,,0.04,WUHU216HW,2013-02-12 03:38:00,
2013-02-11 22:43:00,37.2,34.8,29.66,West,270,1.1,3.6,91,0.00,,,0.04,WUHU216HW,2013-02-12 03:43:00,
2013-02-11 22:48:00,37.1,34.7,29.66,WNW,293,1.8,3.6,91,0.00,,,0.04,WUHU216HW,2013-02-12 03:48:00,
2013-02-11 22:53:00,36.9,34.5,29.66,West,270,1.8,2.5,91,0.00,,,0.04,WUHU216HW,2013-02-12 03:53:00,
2013-02-11 22:58:00,36.9,34.2,29.66,SW,225,3.6,3.6,90,0.00,,,0.04,WUHU216HW,2013-02-12 03:58:00,
2013-02-11 23:03:00,36.7,34.0,29.64,NW,315,1.1,3.6,90,0.00,,,0.04,WUHU216HW,2013-02-12 04:03:00,
2013-02-11 23:08:00,36.5,33.8,29.65,WSW,248,2.5,3.6,90,0.00,,,0.04,WUHU216HW,2013-02-12 04:08:00,
2013-02-11 23:13:00,36.5,33.8,29.64,NNE,23,0.0,2.7,90,0.00,,,0.04,WUHU216HW,2013-02-12 04:13:00,
2013-02-11 23:18:00,36.5,33.8,29.65,WSW,248,1.6,2.7,90,0.00,,,0.04,WUHU216HW,2013-02-12 04:18:00,
2013-02-11 23:23:00,36.3,33.6,29.65,SW,225,1.6,3.1,90,0.00,,,0.04,WUHU216HW,2013-02-12 04:23:00,
2013-02-11 23:29:00,36.3,33.6,29.65,West,270,0.4,3.1,90,0.00,,,0.04,WUHU216HW,2013-02-12 04:29:00,
2013-02-11 23:34:00,36.3,33.6,29.65,WSW,248,0.7,2.0,90,0.00,,,0.04,WUHU216HW,2013-02-12 04:34:00,
2013-02-11 23:39:00,36.2,33.5,29.65,WSW,248,0.0,1.8,90,0.00,,,0.04,WUHU216HW,2013-02-12 04:39:00,
2013-02-11 23:44:00,36.0,33.3,29.65,WNW,293,2.2,2.7,90,0.00,,,0.04,WUHU216HW,2013-02-12 04:44:00,
2013-02-11 23:49:00,36.0,33.3,29.65,SW,225,1.1,2.7,90,0.00,,,0.04,WUHU216HW,2013-02-12 04:49:00,
2013-02-11 23:54:00,36.0,33.3,29.66,South,180,1.1,1.8,90,0.00,,,0.04,WUHU216HW,2013-02-12 04:54:00,
2013-02-11 23:59:00,35.8,33.1,29.66,WSW,248,4.0,4.0,90,0.00,,,0.04,WUHU216HW,2013-02-12 04:59:00,